Location: Mason Neck State Park
(38.6428°N, 77.1981°W)
Time: 01:06:24
(UTC-04:00)

ISS - Visible Passes

Search period start: 26 October 2014 00:00
Search period end: 04 November 2014 23:00
Orbit: 412 x 416 km, 51.6° (Epoch: 25 October)

Date Brightness Start Highest point End Pass type
(mag) Time Alt. Az. Time Alt. Az. Time Alt. Az.
26 Oct -2.4 19:38:41 10° WNW 19:41:54 48° SW 19:43:42 22° SSE visible
27 Oct -3.3 18:49:21 10° NW 18:52:42 88° NE 18:56:02 10° SE visible
28 Oct -0.3 19:37:36 10° W 19:39:47 16° SW 19:41:57 10° S visible
29 Oct -1.2 18:47:39 10° WNW 18:50:37 30° SW 18:53:33 10° SSE visible
31 Oct 0.4 18:47:34 10° WSW 18:48:11 10° SW 18:48:47 10° SW visible
